User: anonymous   Login
Location: Sweet Grass
(48.9965°N, 111.9649°W)
Time: 02:08:20
(UTC+00:00)
Language:

SPROUT - Orbit

View from above orbital plane
View from above orbital plane
View from above satellite
View from above satellite

Ground track
Ground track

The orbit data is extracted from the following two-line orbital elements,

1 39770U 14029E   24109.38450061  .00138576  00000-0  46162-2 0  9996
2 39770  98.0085 256.4557 0003987 299.9856  60.0987 15.30524694538451
Epoch (UTC): 18 April 2024 09:13:40
Eccentricity: 0.0003987
inclination: 98.0085°
perigee height: 471 km
apogee height: 477 km
right ascension of ascending node: 256.4557°
argument of perigee: 299.9856°
revolutions per day: 15.30524694
mean anomaly at epoch: 60.0987°
orbit number at epoch: 53845

The dashed part of the orbit path shows where the satellite is in the earth's shadow,  

DLR